Regional Weather Roundup
Issued by NWS Green Bay, WI

Home | Current Version | Previous Version | Graphics & Text | Print | Product List | Glossary Off
Versions: 1 2 3 4 5 6 7 8 9 10 11 12 13 14 15 16 17 18 19 20 21 22 23 24 25 26 27 28 29 30 31 32 33 34 35 36 37 38 39 40 41 42 43 44 45 46 47 48 49 50

000
ASUS43 KGRB 271400
RWRGRB

NORTH-CENTRAL AND NORTHEAST WISCONSIN REGIONAL WEATHER ROUNDUP
NATIONAL WEATHER SERVICE GREEN BAY WI
900 AM CDT THU APR 27 2017

WIZ005-009-010>012-018-019-271500-
NORTH CENTRAL WISCONSIN

CITY           SKY/WX    TMP DP  RH WIND       PRES   REMARKS
IRONWOOD       LGT SNOW  26  25  96 NW10G17   29.44F VSB 1
MANITOWISH WTR LGT SNOW  26  26 100 N9G16     29.38F
ARBOR VITAE    NOT AVBL
EAGLE RIVER    NOT AVBL
LAND O LAKES   LGT SNOW  29  27  93 N14G22    29.36F
RHINELANDER    MIX PCPN  31  29  92 N8        29.33F FOG
PHILLIPS       MIX PCPN  27  26  96 NW9       29.40F
ANTIGO         NOT AVBL
TOMAHAWK       NOT AVBL
MERRILL        LGT SNOW  32  31  95 N7        29.35F
$$

WIZ013-073-271500-
NORTHEAST WISCONSIN

CITY           SKY/WX    TMP DP  RH WIND       PRES   REMARKS
IRON MOUNTAIN  RAIN      34  30  85 N14G20    29.29S FOG
MARINETTE      LGT RAIN  38  36  92 N8        29.30S FOG
$$

WIZ017-030-035>037-045-271500-
CENTRAL WISCONSIN

CITY           SKY/WX    TMP DP  RH WIND       PRES   REMARKS
MEDFORD        NOT AVBL
WAUSAU         RAIN      33  31  92 NW10      29.33F FOG
MOSINEE        NOT AVBL
MARSHFIELD     FRZ RAIN  31  28  89 NW18G26   29.38R FOG
WISC RAPIDS    LGT RAIN  34  33  96 NW15G21   29.39R
STEVENS POINT  NOT AVBL
WAUPACA        LGT RAIN  39  36  89 NW9       29.35R
SHAWANO        RAIN      39  36  91 NW6       29.32S
CLINTONVILLE   RAIN      36  36 100 NW9       29.32S
WAUTOMA        MIX PCPN  36  34  92 W14       29.38R
$$

WIZ038-039-048-051-271500-
FOX VALLEY

CITY           SKY/WX    TMP DP  RH WIND       PRES   REMARKS
NWS GREEN BAY  LGT RAIN  41  40  96 N8        29.30F
APPLETON       NOT AVBL
OSHKOSH        RAIN      40  38  93 NW15      29.32R FOG
FOND DU LAC    RAIN      42  37  82 W12       29.33R
$$

WIZ022-050-052-271500-
EAST CENTRAL WISCONSIN

CITY           SKY/WX    TMP DP  RH WIND       PRES   REMARKS
EPHRAIM        NOT AVBL
WASHINGTON ISL RAIN      36  35  97 N14       29.27F
STURGEON BAY   LGT RAIN  38  37  97 N16       29.27F
MANITOWOC      NOT AVBL
SHEBOYGAN      CLOUDY    47  44  90 N12       29.27R
$$

LMZ563-521-522-541>543-271500-
LAKESHORE

STATION/POSITION TIME  TEMP    WIND        PRES    VSBY  WAVE
                       AIR SEA DIR/SP/G                  HT/PER
                 (UTC) (F)     (DEG/KT/KT) (MB)    (MI)  (FT/S)
SHEBOYGAN LKSHOR 1300   48     310/ 11/ 13  990.6F
KEWAUNEE LKSHORE 1330   44     320/  5/  6  991.1F
NORTHPORT PIER   1340   37     360/ 12/ 15  991.9F
N MID LAKE BUOY  1250   38 37  360/ 10/ 12  993.2S         2/ 4
SISTER BAY LKSHO 1251   37      20/ 13/ 18   N/A
CHAMBERS ISLAND  1340   37     360/ 17/ 19  991.5F
MENOMINEE LKSHOR 1330   39     350/ 11/ 13  991.3R
$$



USA.gov is the U.S. government's official web portal to all federal, state and local government web resources and services.